Location: Prague
(50.0830°N, 14.4670°E)
Time: 11:13:00
(UTC+01:00)

AO-7 - Pass Details

Date: 16 December 2021
Orbit: 1440 x 1459 km, 101.9° (Epoch: 29 January)

Event Time Altitude Azimuth Distance (km) Brightness Sun altitude
Rises 03:59:56 0° 21° (NNE) 4,554 ? -36.4°
Reaches altitude 10° 04:02:50 10° 26° (NNE) 3,574 ? -35.9°
Maximum altitude 04:10:59 54° 103° (ESE) 1,720 ? -34.6°
Drops below altitude 10° 04:19:05 10° 179° (S) 3,568 ? -33.3°
Sets 04:21:57 0° 184° (S) 4,545 ? -32.9°
